Weather History for Coffeyville, KS

Change the Weather History Date:

Sunday, March 10, 2013

  Actual Average Record
Temperature  
Mean Temperature 42 °F -  
Max Temperature 55 °F 51 °F 79 °F (2014)
Min Temperature 30 °F 30 °F 12 °F (1998)
Degree Days  
Heating Degree Days 22    
Moisture  
Dew Point 36 °F    
Average Humidity 80    
Maximum Humidity 93    
Minimum Humidity 69    
Precipitation  
Precipitation 0.00 in - - ()
Sea Level Pressure  
Sea Level Pressure 29.79 in    
Wind  
Wind Speed 14 mph (WNW)    
Max Wind Speed 24 mph    
Max Gust Speed 30 mph    
Visibility 10 miles    
Events Rain    
Averages and records for this station are not official NWS values.
T = Trace of Precipitation, MM = Missing Value Source: NWS Daily Summary

Daily Weather History Graph

Daily Weather History Graph

Search for Another Location

Airport:

Trip Planner

Search our weather history database for the weather conditions in past years. The results will help you decide how hot, cold, wet, or windy it might be!

Date:

Astronomy

Mar. 10, 2013 Rise Set
Actual Time 7:40 AM CDT 7:25 PM CDT
Civil Twilight 7:14 AM CDT 7:51 PM CDT
Nautical Twilight 6:44 AM CDT 8:21 PM CDT
Astronomical Twilight 6:13 AM CDT 8:51 PM CDT
Moon 6:39 AM CDT (3/10) 6:34 PM CDT (3/10)
Length of Visible Light 12h 36m
Length of Day
11h 45m
Waning Crescent, 2% of the Moon is Illuminated
Mar 10
Waning Crescent
Mar 11
New
Mar 19
First Quarter
Mar 27
Full
Apr 2
Last Quarter

Hourly Weather History & Observations

Time (CDT) Temp. Windchill Dew Point Humidity Pressure Visibility Wind Dir Wind Speed Gust Speed Precip Events Conditions
12:52 AM 54.0 °F - 52.0 °F 93% 29.64 in 10.0 mi South 10.4 mph - N/A   Clear
1:52 AM 55.9 °F - 53.1 °F 90% 29.63 in 10.0 mi South 12.7 mph - N/A   Mostly Cloudy
3:52 AM 55.0 °F - 52.0 °F 89% 29.62 in 10.0 mi South 16.1 mph - N/A   Mostly Cloudy
4:52 AM 55.9 °F - 48.0 °F 75% 29.61 in 10.0 mi South 13.8 mph 24.2 mph N/A   Mostly Cloudy
5:52 AM 54.0 °F - 46.0 °F 75% 29.63 in 10.0 mi South 9.2 mph - 0.00 in Rain Light Rain
6:10 AM 55.4 °F - 46.4 °F 72% 29.68 in 10.0 mi WSW 21.9 mph 27.6 mph 0.00 in   Overcast
7:41 AM 46.4 °F 42.4 °F 42.8 °F 87% 29.66 in 10.0 mi WNW 8.1 mph - N/A   Mostly Cloudy
7:52 AM 46.0 °F 41.4 °F 42.1 °F 86% 29.68 in 10.0 mi West 9.2 mph - N/A   Overcast
8:52 AM 45.0 °F 39.7 °F 41.0 °F 86% 29.70 in 10.0 mi WNW 10.4 mph - N/A   Overcast
9:08 AM 44.6 °F 38.1 °F 41.0 °F 87% 29.69 in 10.0 mi WNW 13.8 mph 19.6 mph N/A   Overcast
9:52 AM 43.0 °F 37.7 °F 39.9 °F 89% 29.72 in 9.0 mi WNW 9.2 mph - N/A   Overcast
10:52 AM 43.0 °F 36.0 °F 37.9 °F 82% 29.74 in 10.0 mi WNW 13.8 mph - N/A   Overcast
11:52 AM 42.1 °F 35.2 °F 37.9 °F 85% 29.75 in 10.0 mi NW 12.7 mph - N/A   Overcast
12:29 PM 41.0 °F 32.5 °F 35.6 °F 81% 29.77 in 10.0 mi NW 17.3 mph 23.0 mph N/A   Overcast
12:52 PM 41.0 °F 33.1 °F 36.0 °F 82% 29.77 in 10.0 mi NW 15.0 mph - N/A   Overcast
1:52 PM 39.9 °F 30.8 °F 34.0 °F 79% 29.78 in 10.0 mi NNW 18.4 mph 25.3 mph N/A   Overcast
2:17 PM 39.2 °F 30.5 °F 33.8 °F 81% 29.79 in 10.0 mi NW 16.1 mph - N/A   Overcast
2:31 PM 39.2 °F 28.5 °F 33.8 °F 81% 29.80 in 9.0 mi NW 24.2 mph 29.9 mph 0.00 in Rain Light Rain
2:52 PM 39.0 °F 29.0 °F 33.1 °F 79% 29.81 in 10.0 mi NW 20.7 mph 27.6 mph 0.00 in   Overcast
3:16 PM 35.6 °F 25.2 °F 32.0 °F 87% 29.83 in 5.0 mi WNW 18.4 mph 28.8 mph 0.00 in Rain Light Rain
3:52 PM 35.1 °F 23.8 °F 30.0 °F 82% 29.86 in 10.0 mi NW 20.7 mph 27.6 mph 0.00 in   Overcast
4:52 PM 33.1 °F 22.2 °F 28.0 °F 82% 29.91 in 10.0 mi WNW 17.3 mph 27.6 mph N/A   Overcast
5:11 PM 33.8 °F 22.2 °F 26.6 °F 75% 29.91 in 10.0 mi NW 20.7 mph 28.8 mph N/A   Overcast
5:52 PM 33.1 °F 21.5 °F 26.1 °F 75% 29.92 in 10.0 mi WNW 19.6 mph 25.3 mph N/A   Overcast
6:52 PM 33.1 °F 23.0 °F 25.0 °F 72% 29.94 in 10.0 mi NW 15.0 mph - N/A   Overcast
7:52 PM 32.0 °F 21.2 °F 24.1 °F 73% 29.96 in 10.0 mi NW 16.1 mph 25.3 mph N/A   Overcast
8:52 PM 32.0 °F 21.2 °F 24.1 °F 73% 29.98 in 10.0 mi NW 16.1 mph - N/A   Overcast
9:52 PM 32.0 °F 21.6 °F 23.0 °F 69% 30.00 in 10.0 mi NW 15.0 mph 24.2 mph N/A   Overcast
11:52 PM 30.9 °F 20.7 °F 21.9 °F 69% 30.03 in 10.0 mi WNW 13.8 mph - N/A   Overcast
12:52 AM 30.9 °F 21.2 °F 21.9 °F 69% 30.02 in 10.0 mi NW 12.7 mph - N/A   Overcast